Flag for Austria Weather past 2 weeks in Bruck an der Leitha, Lower Austria, Austria

Now
60 °F

Low clouds.


Feels Like: N/A
Forecast: 57 / 67 °F
Wind: N/A

Location: Wien / Schwechat-Flughafen

Current Time: Sep 30, 2014 at 3:29:20 PM

Latest Report: Sep 30, 2014 at 2:00 PM


Visibility: 5 mi

Pressure: 30.30 "Hg

Humidity: 86%

Dew point: 55 °F

Location of Bruck an der LeithaLocation

Historic Weather in Bruck an der Leitha — Graph

°F

Bruck an der Leitha temperature yesterday

Maximum temperature yesterday: 69 °F (at 4:00 PM)
Minimum temperature yesterday: 49 °F (at 6:00 AM)
Average temperature yesterday: 58 °F

Past Weeks' High & Low Weather Summary

 TemperatureHumidityPressure
High77 °F (Sep 21, 2:00 PM)100% (Sep 16, 3:00 AM)30.42 "Hg (Sep 16, 3:00 AM)
Low39 °F (Sep 24, 6:00 AM)52% (Sep 21, 2:00 PM)29.79 "Hg (Sep 22, 3:00 AM)
Average59 °F81%30.10 "Hg
* Reported Sep 15 2:00 PM — Sep 30 2:00 PM, Bruck an der Leitha, Weather by CustomWeather, © 2014

Note: Actual official high and low records may vary slightly from our data, if they occured in-between our weather recording intervals... More about our weather records

Advertising

Bruck an der Leitha weather history for previous 24 hours

 ConditionsComfort  
Time TempWeatherWind HumidityBarometerVisibility
2:00 PM
Sep 30
60 °FLow clouds.N/A86%30.30 "Hg5 mi
1:00 PM57 °FLow clouds.5 mph92%30.32 "Hg3 mi
12:00 PM56 °FLow clouds.N/A95%30.32 "Hg2 mi
11:00 AM55 °FLow clouds.N/A98%30.33 "Hg2 mi
10:00 AM54 °FLow clouds.N/A99%30.33 "Hg1 mi
9:00 AM53 °FLight rain. Low clouds.N/A99%30.33 "Hg1 mi
8:00 AM53 °FLow clouds.N/A99%30.32 "Hg1 mi
7:00 AM52 °FLow clouds.N/A99%30.31 "Hg2 mi
6:00 AM52 °FLow clouds.N/A99%30.31 "Hg2 mi
5:00 AM52 °FLight rain. Low clouds.N/A100%30.31 "Hg0 mi
4:00 AM51 °FLight snow. Low clouds.N/A100%30.31 "Hg0 mi
3:00 AM50 °FPassing clouds.N/A99%30.30 "Hg2 mi
2:00 AM50 °FPassing clouds.N/A98%30.30 "Hg2 mi
1:00 AM51 °FPassing clouds.N/A98%30.30 "Hg3 mi
12:00 AM53 °FPassing clouds.N/A99%30.29 "Hg2 mi
11:00 PM
Sep 29
53 °FPassing clouds.N/A97%30.29 "Hg4 mi
10:00 PM57 °FPassing clouds.N/A91%30.29 "Hg11 mi
9:00 PM61 °FPassing clouds.N/A80%30.29 "Hg17 mi
8:00 PM62 °FPassing clouds.N/A77%30.28 "Hg22 mi
7:00 PM64 °FPassing clouds.N/A75%30.28 "Hg6 mi
6:00 PM68 °FPartly sunny.5 mph65%30.27 "Hg18 mi
5:00 PM69 °FScattered clouds.5 mph63%30.27 "Hg18 mi
4:00 PM69 °FScattered clouds.N/A64%30.29 "Hg16 mi
3:00 PM67 °FScattered clouds.N/A65%30.31 "Hg17 mi
Weather by CustomWeather, © 2014

See weather overviewHow to use our weather pages